[[{"header":{"parameterUnit":"m.s-1","parameterCategory":1,"la1":30.2991,"la2":30.254,"lo1":-89.0895,"lo2":-89.0444,"dy":0.0017,"dx":0.0017,"nx":28,"ny":28,"refTime":"2024-02-09T03:00:00:Z","depth":0,"parameterNumber":2,"parameterNumberName":"U-component_of_WINDS"},"data":[0,0,0,0,0,0,0,0,0,0,0,0,0,0,0,0,0,0,0,0,0,0,0,0,0,0,0,0,0,0,0,0,0,0,0,0,0,0,0,0,0,0,0,0,0,0,0,0,0,0,0,0,0,0,0,0,0,0,-3.8028,-3.8029,0,-3.814,-3.8141,-3.8142,-3.8129,-3.8127,-3.8125,-3.8124,-3.8236,-3.824,-3.8245,0,0,0,0,0,0,0,0,0,0,0,0,0,-3.7801,-3.7805,-3.8028,-3.8029,-3.8031,-3.814,-3.8141,-3.8143,-3.8129,-3.8127,-3.8125,-3.8123,-3.8234,-3.824,-3.8245,0,0,0,0,0,0,0,0,0,0,0,0,0,-3.7905,-3.7807,-3.8028,-3.8037,-3.8039,-3.8139,-3.8141,-3.8143,-3.813,-3.8127,-3.8124,-3.8122,-3.8232,-3.8239,-3.8246,-3.8343,0,0,-3.8267,-3.827,0,0,0,0,0,0,0,0,-3.7899,-3.7913,-3.8034,-3.8037,-3.8039,-3.8118,-3.8102,-3.821,-3.8131,-3.8095,-3.8124,-3.8121,-3.8198,-3.8208,-3.8235,-3.8348,-3.8353,-3.8268,-3.8272,-3.8275,-3.8277,0,0,0,0,0,0,0,-3.7892,-3.7908,-3.8072,-3.8036,-3.8039,-3.8035,-3.8047,-3.8123,-3.816,-3.8098,-3.8098,-3.8111,-3.8199,-3.8228,-3.8237,-3.8355,-3.8268,-3.8274,-3.8278,-3.8281,-3.8554,-3.8557,0,0,0,0,0,0,-3.7883,-3.7902,-3.8068,-3.8075,-3.7961,-3.8042,-3.8055,-3.8095,-3.816,-3.8167,-3.8113,-3.811,-3.8218,-3.8229,-3.8241,-3.8359,-3.8275,-3.8282,-3.8286,-3.8551,-3.8554,-3.8558,0,0,0,0,0,0,-3.7878,-3.7898,-3.8064,-3.7989,-3.801,-3.8049,-3.8094,-3.8099,-3.8128,-3.8171,-3.8178,-3.8136,-3.8216,-3.8231,-3.8318,-3.8363,-3.8285,-3.8291,-3.8547,-3.8552,-3.8556,-3.8595,0,0,0,0,0,0,-3.7871,-3.7896,-3.7933,-3.799,-3.8014,-3.8139,-3.8097,-3.8103,-3.814,-3.8137,-3.8194,-3.8201,-3.8215,-3.8308,-3.8325,-3.8371,-3.8297,-3.8543,-3.8549,-3.8555,-3.859,-3.86,-3.8609,0,0,0,0,0,-3.7863,-3.7939,-3.7935,-3.7955,-3.8062,-3.8142,-3.8156,-3.8171,-3.8144,-3.8181,-3.821,-3.8199,-3.8356,-3.8317,-3.8336,-3.8385,-3.854,-3.8548,-3.8554,-3.8586,-3.8598,-3.8609,0,0,0,0,0,0,-3.7885,-3.7946,-3.7943,-3.8039,-3.8086,-3.814,-3.8187,-3.8184,-3.8238,-3.8233,-3.8249,-3.8262,-3.8349,-3.8376,-3.8332,-3.8482,-3.8444,-3.8455,-3.8461,-3.8474,-3.8484,-3.8475,-3.8302,0,0,0,0,0,-3.7902,-3.7962,-3.8012,-3.8093,-3.8116,-3.8148,-3.8184,-3.8192,-3.824,-3.8259,-3.8294,-3.834,-3.84,-3.8439,-3.8496,-3.8595,-3.8607,-3.8638,-3.8647,-3.8655,-3.8664,-3.8718,-3.8733,-3.858,-3.858,-3.858,0,0,-3.7935,-3.7976,-3.8013,-3.8098,-3.8135,-3.8197,-3.8165,-3.8231,-3.8278,-3.8269,-3.8353,-3.838,-3.8433,-3.8527,-3.8569,-3.8551,-3.8709,-3.8664,-3.867,-3.8674,-3.8727,-3.8741,-3.8754,-3.8585,-3.8584,-3.8583,0,0,-3.8028,-3.8066,-3.8137,-3.8175,-3.8232,-3.8253,-3.827,-3.8325,-3.8343,-3.8428,-3.8424,-3.8479,-3.8581,-3.8619,-3.8652,-3.8762,-3.8754,-3.8781,-3.8831,-3.8883,-3.8895,-3.8906,-3.8945,-3.8958,-3.879,-3.879,-3.879,0,-3.8062,-3.8156,-3.8173,-3.8242,-3.8279,-3.8276,-3.8348,-3.8384,-3.8457,-3.8482,-3.8462,-3.8591,-3.8627,-3.8729,-3.8756,-3.8783,-3.8803,-3.8773,-3.8892,-3.8903,-3.8914,-3.8951,-3.8965,-3.8792,-3.8792,-3.8792,-3.8792,0,-3.8196,-3.8261,-3.8312,-3.8383,-3.8426,-3.8496,-3.8524,-3.8565,-3.8571,-3.8594,-3.8681,-3.8724,-3.879,-3.8815,-3.882,-3.8919,-3.8906,-3.8889,-3.885,-3.893,-3.8965,-3.898,-3.8796,-3.8795,-3.8795,-3.8794,0,0,-3.8303,-3.8385,-3.8403,-3.8435,-3.8499,-3.855,-3.862,-3.8686,-3.8721,-3.8772,-3.883,-3.8918,-3.8904,-3.8941,-3.8951,-3.8997,-3.9082,-3.8975,-3.8976,-3.8992,-3.9192,-3.9203,-3.922,-3.9078,-3.9081,-3.9083,-3.9187,0,-3.8401,-3.8526,-3.8544,-3.8654,-3.8714,-3.8714,-3.8775,-3.882,-3.8844,-3.8899,-3.8925,-3.8987,-3.8964,-3.8986,-3.9032,-3.9061,-3.9122,-3.9054,-3.9131,-3.9134,-3.9116,-3.9238,-3.925,-3.9346,-3.9201,-3.9204,-3.9205,0,-3.8532,-3.8588,-3.8703,-3.876,-3.8786,-3.8841,-3.8903,-3.8956,-3.9008,-3.9022,-3.9065,-3.907,-3.9142,-3.9102,-3.9202,-3.9156,-3.9189,-3.9208,-3.9212,-3.9219,-3.9173,-3.9246,-3.9378,-3.9391,-3.9227,-3.9225,-3.9224,0,-3.8598,-3.8702,-3.8785,-3.8813,-3.8881,-3.8919,-3.8949,-3.8999,-3.9038,-3.9092,-3.9118,-3.918,-3.9214,-3.9262,-3.9283,-3.9252,-3.9381,-3.9343,-3.9394,-3.9394,-3.942,-3.9417,-3.9557,-3.9444,-3.9443,-3.9443,-3.9443,0,-3.8705,-3.8775,-3.8815,-3.8866,-3.8945,-3.8966,-3.9044,-3.9073,-3.9117,-3.9173,-3.9177,-3.9229,-3.9255,-3.9311,-3.9328,-3.9408,-3.9424,-3.9437,-3.944,-3.9436,-3.9434,-3.9456,-3.9449,-3.9447,-3.9446,-3.9445,-3.9445,0,-3.879,-3.882,-3.891,-3.8968,-3.8985,-3.904,-3.909,-3.9139,-3.9164,-3.9235,-3.9253,-3.9291,-3.9358,-3.9385,-3.9466,-3.9478,-3.9569,-3.9568,-3.9552,-3.9552,-3.9601,-3.9596,-3.9758,-3.9781,-3.9654,-3.9655,-3.9656,0,-3.8856,-3.891,-3.8975,-3.9013,-3.9045,-3.9107,-3.9147,-3.917,-3.9212,-3.9276,-3.9318,-3.9385,-3.9439,-3.9546,-3.9581,-3.9644,-3.9643,-3.9696,-3.9652,-3.9646,-3.9643,-3.9638,-3.9644,-3.9703,-3.9704,-3.9705,-3.9706,0,-3.8968,-3.8981,-3.9039,-3.9104,-3.9152,-3.9203,-3.9253,-3.9284,-3.9315,-3.9362,-3.9431,-3.9474,-3.9558,-3.9624,-3.9689,-3.9719,-3.9718,-3.972,-3.9735,-3.973,-3.9718,-3.9724,-3.9572,-3.9716,-3.9715,-3.9714,-3.9714,-3.9713,-3.9045,-3.9094,-3.9147,-3.9212,-3.9253,-3.93,-3.9349,-3.9381,-3.944,-3.951,-3.9521,-3.9595,-3.9646,-3.9734,-3.9767,-3.9825,-3.9811,-3.9833,-3.9838,-3.9842,-3.9845,-3.9711,-3.9837,-3.9837,-3.9836,-3.9836,-3.9836,0,-3.9157,-3.9192,-3.9252,-3.9323,-3.9374,-3.9371,-3.9426,-3.9469,-3.9534,-3.9583,-3.9638,-3.9717,-3.9782,-3.9823,-3.9888,-3.9927,-3.9928,-3.9943,-3.9939,-3.9946,-3.9854,-3.9835,-3.9941,-3.9941,-3.9941,-3.9941,-3.9941,-3.9941,-3.9221,-3.9304,-3.9323,-3.9425,-3.946,-3.9533,-3.9565,-3.9608,-3.9648,-3.9737,-3.9791,-3.9818,-3.9864,-3.9933,-3.9992,-4.0003,-4.0026,-4.0042,-4.0051,-3.9964,-3.9953,-3.9942,-3.9924,-4.0047,-4.0047,-4.0138,-4.0139,-4.014]},{"header":{"parameterUnit":"m.s-1","parameterCategory":1,"la1":30.2991,"la2":30.254,"lo1":-89.0895,"lo2":-89.0444,"dy":0.0017,"dx":0.0017,"nx":28,"ny":28,"refTime":"2024-02-09T03:00:00:Z","depth":0,"parameterNumber":3,"parameterNumberName":"V-component_of_WINDS"},"data":[0,0,0,0,0,0,0,0,0,0,0,0,0,0,0,0,0,0,0,0,0,0,0,0,0,0,0,0,0,0,0,0,0,0,0,0,0,0,0,0,0,0,0,0,0,0,0,0,0,0,0,0,0,0,0,0,0,0,1.9591,1.9593,0,1.9749,1.9751,1.9753,1.9842,1.9842,1.9842,1.9843,2.0006,2.001,2.0014,0,0,0,0,0,0,0,0,0,0,0,0,0,1.937,1.9373,1.9591,1.9593,1.9595,1.9749,1.9751,1.9753,1.9842,1.9842,1.9843,1.9843,2.0005,2.0009,2.0014,0,0,0,0,0,0,0,0,0,0,0,0,0,1.9491,1.9375,1.9591,1.9658,1.9665,1.9749,1.9751,1.9754,1.9842,1.9842,1.9843,1.9843,2.0003,2.0009,2.0015,2.0044,0,0,2.0034,2.0036,0,0,0,0,0,0,0,0,1.9484,1.9499,1.9646,1.9653,1.9662,1.9776,1.9733,1.9851,1.9842,1.9775,1.9843,1.9843,1.9929,1.9941,1.997,2.0052,2.0059,2.0034,2.0038,2.0041,2.0042,0,0,0,0,0,0,0,1.9475,1.9492,1.9654,1.9648,1.9658,1.9681,1.9699,1.9756,1.9848,1.9781,1.9787,1.9805,1.9934,1.9964,1.9975,2.0061,2.0034,2.004,2.0043,2.0046,2.018,2.018,0,0,0,0,0,0,1.9456,1.9485,1.9649,1.9659,1.9572,1.9685,1.9705,1.9739,1.9847,1.9864,1.9804,1.9808,1.9954,1.9968,1.9981,2.0026,2.0041,2.0046,2.005,2.0181,2.018,2.018,0,0,0,0,0,0,1.9451,1.9469,1.9642,1.9574,1.9598,1.9688,1.9726,1.9742,1.9773,1.9865,1.9882,1.9818,1.9954,1.9972,2.0029,2.0032,2.0049,2.0055,2.0181,2.0181,2.018,2.0113,0,0,0,0,0,0,1.9444,1.9467,1.9478,1.9573,1.9601,1.9686,1.9726,1.9745,1.9783,1.979,1.9883,1.9899,1.9956,2.0019,2.0035,2.0041,2.0059,2.0181,2.0181,2.018,2.0115,2.011,2.0106,0,0,0,0,0,1.9436,1.9452,1.9478,1.9497,1.9616,1.9686,1.9702,1.9767,1.9782,1.9795,1.9856,1.9896,2.0029,2.0024,2.0043,2.0051,2.0181,2.0181,2.018,2.0117,2.0111,2.0106,0,0,0,0,0,0,1.9354,1.9465,1.9495,1.9543,1.9604,1.9701,1.9719,1.9758,1.9817,1.9821,1.99,1.992,1.997,2.0016,2.0009,2.0087,2.011,2.0113,2.0055,2.0051,2.0046,2.0034,2.0065,0,0,0,0,0,1.9341,1.9388,1.9483,1.9516,1.9545,1.9626,1.9659,1.9705,1.9772,1.9798,1.9863,1.9927,1.9984,2.002,2.0077,2.0122,2.0146,2.0137,2.0133,2.0129,2.0131,2.0162,2.0161,2.018,2.018,2.018,0,0,1.9315,1.9382,1.9407,1.9501,1.9554,1.9603,1.9648,1.9696,1.9734,1.9806,1.9864,1.9914,1.9991,2.0043,2.007,2.0083,2.0131,2.0129,2.0125,2.0129,2.0162,2.016,2.0158,2.018,2.018,2.018,0,0,1.9294,1.9348,1.9383,1.9436,1.9516,1.9571,1.9579,1.9671,1.9707,1.9767,1.9824,1.987,1.9965,2.0019,2.0059,2.0063,2.0103,2.0079,2.0056,2.0086,2.0084,2.0083,2.0087,2.0087,2.0081,2.0081,2.0081,0,1.9252,1.9326,1.9396,1.9442,1.9484,1.9552,1.959,1.9638,1.9733,1.9761,1.9775,1.9899,1.9955,2.0023,2.0024,2.0053,2.0068,2.0069,2.0079,2.0078,2.0079,2.0083,2.0084,2.0078,2.0078,2.0078,2.0079,0,1.9273,1.9324,1.9342,1.9433,1.9477,1.9518,1.9596,1.9632,1.9674,1.9728,1.979,1.9861,1.9936,1.9955,1.9996,2.003,2.0036,2.0063,2.0088,2.0072,2.0078,2.008,2.0073,2.0074,2.0075,2.0076,0,0,1.9202,1.9333,1.9339,1.9383,1.9479,1.952,1.9566,1.964,1.967,1.9734,1.9777,1.9858,1.9885,1.993,1.9979,2.0004,2.0007,2.0029,2.0033,2.0024,2.0052,2.0032,2.0032,2.0034,2.0035,2.0035,2.0046,0,1.9196,1.9281,1.9347,1.9408,1.9458,1.9526,1.9567,1.9631,1.9684,1.9735,1.9793,1.9851,1.988,1.9909,1.9937,2.0,2.0014,2.0,2.0076,2.0078,2.0056,2.0035,2.0013,2.002,2.0048,2.0049,2.0049,0,1.9199,1.9262,1.9328,1.9423,1.9446,1.9481,1.9556,1.9603,1.9679,1.9716,1.9768,1.9819,1.9874,1.9893,1.997,1.996,1.9996,2.0031,2.0034,2.0044,2.0063,2.0046,2.0023,2.0024,2.0053,2.0053,2.0052,0,1.9144,1.9245,1.9299,1.9334,1.9444,1.9468,1.9516,1.9592,1.9633,1.9699,1.9727,1.9797,1.9837,1.9891,1.9961,1.9968,2.0033,2.0057,2.0067,2.0065,2.0077,2.0076,2.0061,2.0098,2.0098,2.0098,2.0098,0,1.9131,1.917,1.9277,1.9309,1.9356,1.9433,1.9477,1.953,1.9598,1.9644,1.9707,1.975,1.9839,1.9893,1.9948,2.0006,2.0022,2.0055,2.0069,2.005,2.0046,2.0075,2.0077,2.0098,2.0098,2.0098,2.0098,0,1.9077,1.915,1.9214,1.9314,1.934,1.937,1.9457,1.9493,1.955,1.9608,1.9626,1.9716,1.9783,1.9858,1.995,1.9987,2.0042,2.0062,2.0016,2.0025,2.0031,2.003,2.0035,2.0041,2.0071,2.0071,2.0071,0,1.9064,1.9096,1.92,1.9236,1.9282,1.9338,1.9381,1.9459,1.9501,1.9592,1.9618,1.969,1.9752,1.9856,1.9931,2.0002,2.0025,2.0022,2.0036,2.0017,2.0028,2.0026,2.0031,2.0018,2.0017,2.0017,2.0016,0,1.9035,1.9071,1.913,1.9203,1.9253,1.9314,1.9377,1.9403,1.9494,1.954,1.9609,1.9657,1.9753,1.9824,1.9906,1.9957,2.0003,2.0011,2.0018,1.9999,1.9972,1.9989,2.0007,2.0011,2.0011,2.0012,2.0012,2.0012,1.9003,1.9036,1.9115,1.918,1.9237,1.9296,1.9336,1.9399,1.9458,1.9541,1.9584,1.9654,1.9733,1.9847,1.9897,1.9954,1.9969,1.9977,1.998,1.9981,1.9977,1.9962,1.9969,1.9969,1.997,1.997,1.997,0,1.8979,1.9034,1.9093,1.9182,1.9234,1.9272,1.9346,1.9387,1.9448,1.9517,1.9578,1.966,1.9731,1.9812,1.9888,1.9919,1.9942,1.9936,1.9936,1.9947,1.9958,1.9946,1.9917,1.9917,1.9917,1.9917,1.9917,1.9917,1.8973,1.9031,1.9076,1.9165,1.922,1.9289,1.9328,1.9384,1.9441,1.9529,1.9589,1.9641,1.9716,1.9799,1.9867,1.989,1.9916,1.9904,1.9932,1.9941,1.9946,1.995,1.9939,1.9909,1.9908,1.9917,1.9917,1.9917]}]]